Location: ????
(30.1475°N, 31.1342°E)
Time: 11:11:29
(UTC+00:00)

Cosmos 2251 Rocket - Pass Details

Date: 27 September 2022
Orbit: 765 x 791 km, 74.0° (Epoch: 26 November)

Event Time Altitude Azimuth Distance (km) Brightness Sun altitude
Rises 02:44:13 0° 327° (NNW) 3,238 6.5 -14.3°
Reaches altitude 10° 02:47:00 10° 313° (NW) 2,305 5.6 -13.7°
Maximum altitude 02:51:04 23° 262° (W) 1,566 4.5 -12.8°
Drops below altitude 10° 02:55:08 10° 210° (SSW) 2,291 5.6 -11.9°
Sets 02:57:54 0° 196° (SSW) 3,214 6.5 -11.3°
